Regional Weather Roundup
Issued by NWS Binghamton, NY

Current Version | Previous Version | Text Only | Print | Product List | Glossary On
Versions: 1 2 3 4 5 6 7 8 9 10 11 12 13 14 15 16 17 18 19 20 21 22 23 24 25 26 27 28
000
ASUS41 KBGM 250010
RWRBGM

REGIONAL WEATHER ROUNDUP
NATIONAL WEATHER SERVICE BINGHAMTON NY
800 PM EDT TUE MAY 24 2016

Note: "fair" indicates few or no clouds below 12,000 feet with no
significant weather and/or obstructions to visibility.

* = Station(s) that does not report precipitation, such as rain,
snow, etc, also no thunder or fog.

NYZ009-015>018-022>025-036-037-044>046-055>057-062-250100
...Central New York...

CITY           SKY/WX    TMP DP  RH WIND       PRES   REMARKS
Binghamton     CLEAR     70  40  33 NW7       29.98R
Cortland       FAIR      70  30  23 CALM      29.98R
Dansville      CLEAR     75  41  29 NW3       29.98R
Elmira         CLEAR     75  36  24 NW3       29.97R
Ithaca         CLEAR     71  35  26 N5        29.98
Hamilton       CLEAR     72  36  26 CALM      29.97R
Hornell        CLEAR     72  39  30 W3        30.03R
Monticello     CLOUDY    64  54  68 CALM      29.99S
Norwich        CLEAR     70  36  28 CALM      29.97R
Oneonta        PTCLDY    70  28  21 CALM      29.99R
Penn Yan       CLEAR     75  41  29 W5        29.98R
Rome           CLEAR     70  30  22 W10       29.94R
Sidney         CLEAR     75  37  25 CALM      29.96R
Syracuse       CLEAR     71  26  18 NW6       29.94R
$$

PAZ038>040-043-044-047-048-072-250100
...Northeast Pennsylvania...

CITY           SKY/WX    TMP DP  RH WIND       PRES   REMARKS
Hazleton       PTCLDY    73  37  27 NW5       30.02R
Scranton       CLEAR     75  40  28 N5        29.95R
$$
&&
KEY
WCI = Wind Chill Index
VSB = Visibility
HX  = Heat Index
$$




USA.gov is the U.S. government's official web portal to all federal, state and local government web resources and services.